[[{"header":{"parameterUnit":"m.s-1","parameterCategory":1,"la1":30.2991,"la2":30.254,"lo1":-89.0895,"lo2":-89.0444,"dy":0.0017,"dx":0.0017,"nx":28,"ny":28,"refTime":"2025-02-25T09:00:00:Z","depth":0,"parameterNumber":2,"parameterNumberName":"U-component_of_WINDS"},"data":[0,0,0,0,0,0,0,0,0,0,0,0,0,0,0,0,0,0,0,0,0,0,0,0,0,0,0,0,0,0,0,0,0,0,0,0,0,0,0,0,0,0,0,0,0,0,0,0,0,0,0,0,0,0,0,0,0,0,1.428,1.428,0,1.4317,1.4318,1.4318,1.4267,1.4265,1.4263,1.4261,1.4306,1.4308,1.4311,0,0,0,0,0,0,0,0,0,0,0,0,0,1.4172,1.4174,1.428,1.428,1.4281,1.4317,1.4318,1.4318,1.4267,1.4265,1.4263,1.4261,1.4305,1.4308,1.4312,0,0,0,0,0,0,0,0,0,0,0,0,0,1.4215,1.4175,1.428,1.426,1.4258,1.4317,1.4318,1.4318,1.4268,1.4265,1.4262,1.426,1.4304,1.4308,1.4312,1.4394,0,0,1.4325,1.4327,0,0,0,0,0,0,0,0,1.4213,1.4219,1.4262,1.4261,1.426,1.4284,1.4295,1.4344,1.4268,1.4264,1.4261,1.4258,1.4301,1.4306,1.4319,1.4396,1.4398,1.4326,1.4328,1.433,1.4331,0,0,0,0,0,0,0,1.421,1.4217,1.4295,1.4263,1.4261,1.4251,1.4254,1.4304,1.4298,1.4264,1.4261,1.4266,1.43,1.4315,1.432,1.4399,1.4326,1.433,1.4332,1.4334,1.4548,1.4551,0,0,0,0,0,0,1.4208,1.4215,1.4294,1.4296,1.4229,1.4255,1.4259,1.4279,1.4297,1.4297,1.4268,1.4263,1.4309,1.4315,1.4321,1.442,1.433,1.4334,1.4337,1.4545,1.4549,1.4552,0,0,0,0,0,0,1.4206,1.4216,1.4292,1.4254,1.4263,1.426,1.4284,1.4282,1.4296,1.43,1.4299,1.4284,1.4307,1.4315,1.4376,1.4421,1.4336,1.434,1.4542,1.4546,1.4551,1.4618,0,0,0,0,0,0,1.4203,1.4215,1.4245,1.4255,1.4266,1.4345,1.4286,1.4284,1.4303,1.4297,1.4314,1.4315,1.4305,1.437,1.4381,1.4425,1.4344,1.4538,1.4544,1.4549,1.4612,1.4624,1.4635,0,0,0,0,0,1.4199,1.4263,1.4246,1.4256,1.4302,1.4348,1.4354,1.434,1.4307,1.4338,1.434,1.4314,1.4414,1.4377,1.4388,1.4435,1.4535,1.4542,1.4549,1.4607,1.4622,1.4635,0,0,0,0,0,0,1.426,1.4264,1.4246,1.4314,1.4331,1.4339,1.4378,1.4356,1.4384,1.4378,1.4361,1.4365,1.4432,1.4439,1.4398,1.4517,1.4469,1.4479,1.4509,1.4524,1.4535,1.4533,1.4347,0,0,0,0,0,1.428,1.4315,1.4318,1.4379,1.4388,1.4381,1.4401,1.4388,1.4406,1.4413,1.442,1.444,1.4476,1.45,1.4533,1.4612,1.4617,1.465,1.4661,1.4671,1.468,1.4725,1.4741,1.4575,1.4575,1.4575,0,0,1.4325,1.4332,1.4355,1.4391,1.4402,1.4441,1.4388,1.443,1.446,1.442,1.4479,1.4485,1.4506,1.4577,1.4609,1.4586,1.4727,1.468,1.4687,1.4691,1.4734,1.4749,1.4763,1.458,1.4579,1.4578,0,0,1.4426,1.4433,1.4485,1.4497,1.4515,1.451,1.4523,1.4534,1.4537,1.4594,1.4566,1.4602,1.4663,1.468,1.4697,1.4805,1.4783,1.4816,1.4878,1.4922,1.4935,1.4946,1.4987,1.5002,1.4825,1.4825,1.4825,0,1.4479,1.4534,1.4515,1.456,1.4578,1.4542,1.4596,1.461,1.4638,1.4652,1.4625,1.4702,1.4714,1.4789,1.4816,1.483,1.4846,1.4815,1.4934,1.4945,1.4956,1.4995,1.501,1.4829,1.4829,1.4828,1.4828,0,1.4601,1.4639,1.468,1.4706,1.4728,1.4778,1.4768,1.4794,1.4779,1.4779,1.484,1.4852,1.4888,1.4905,1.4892,1.498,1.4965,1.4936,1.4888,1.4976,1.5012,1.5027,1.4835,1.4833,1.4832,1.4831,0,0,1.4742,1.4756,1.4772,1.4784,1.4801,1.4832,1.488,1.4913,1.4937,1.4957,1.5,1.5053,1.5027,1.5046,1.5034,1.5073,1.516,1.5039,1.504,1.5063,1.5261,1.5284,1.5301,1.5145,1.5148,1.515,1.526,0,1.4844,1.4926,1.4911,1.4992,1.5029,1.4995,1.5038,1.5055,1.5055,1.5089,1.509,1.5129,1.509,1.5102,1.5138,1.5142,1.52,1.5134,1.5187,1.5189,1.5185,1.532,1.5344,1.5447,1.5274,1.5276,1.5278,0,1.4974,1.4999,1.5083,1.5095,1.511,1.5149,1.5179,1.521,1.5229,1.5227,1.5248,1.523,1.5282,1.5232,1.5304,1.5259,1.528,1.5286,1.5289,1.5296,1.524,1.5332,1.548,1.5496,1.53,1.5298,1.5296,0,1.5072,1.5125,1.5183,1.5195,1.5209,1.5238,1.5246,1.5261,1.5283,1.531,1.5324,1.5357,1.5376,1.5403,1.5396,1.536,1.5471,1.542,1.5473,1.5474,1.55,1.5499,1.5655,1.551,1.5509,1.5509,1.5509,0,1.5189,1.5243,1.5227,1.5263,1.5323,1.5306,1.5366,1.5371,1.5385,1.5423,1.5396,1.5433,1.542,1.5457,1.5451,1.5513,1.5522,1.5524,1.5522,1.5527,1.5527,1.5542,1.5536,1.5513,1.5512,1.5512,1.5511,0,1.5309,1.53,1.5361,1.537,1.5373,1.5418,1.5426,1.5461,1.5459,1.5508,1.5519,1.5517,1.5559,1.5554,1.5601,1.5597,1.5675,1.5664,1.5669,1.5667,1.5722,1.5718,1.5895,1.5919,1.5756,1.5757,1.5759,0,1.5385,1.5425,1.5438,1.546,1.547,1.5507,1.5528,1.5513,1.5537,1.5562,1.5595,1.5634,1.5664,1.5734,1.5738,1.5775,1.5766,1.5826,1.5772,1.5776,1.577,1.5769,1.5774,1.5837,1.5839,1.5841,1.5842,0,1.5523,1.5516,1.5547,1.5577,1.5603,1.5626,1.5647,1.5668,1.5655,1.5683,1.5725,1.5748,1.5796,1.5837,1.5871,1.5882,1.5862,1.5858,1.5873,1.588,1.5882,1.5884,1.5701,1.5855,1.5854,1.5853,1.5852,1.5851,1.5625,1.566,1.5674,1.571,1.5724,1.5744,1.5777,1.5779,1.5813,1.585,1.5839,1.5887,1.5907,1.595,1.5965,1.6004,1.5983,1.6003,1.6009,1.6015,1.6023,1.5874,1.601,1.601,1.6009,1.6009,1.6009,0,1.5763,1.577,1.5803,1.5833,1.5861,1.5836,1.5858,1.5885,1.5927,1.5945,1.5976,1.6025,1.6064,1.6071,1.6109,1.614,1.6131,1.615,1.6149,1.6153,1.6039,1.6023,1.6157,1.6157,1.6157,1.6157,1.6157,1.6157,1.5839,1.5897,1.5893,1.5959,1.5966,1.6011,1.6027,1.6046,1.6061,1.6116,1.6148,1.6152,1.6167,1.6206,1.6242,1.6243,1.626,1.6283,1.6282,1.6175,1.616,1.6146,1.6132,1.6286,1.6287,1.6393,1.6394,1.6394]},{"header":{"parameterUnit":"m.s-1","parameterCategory":1,"la1":30.2991,"la2":30.254,"lo1":-89.0895,"lo2":-89.0444,"dy":0.0017,"dx":0.0017,"nx":28,"ny":28,"refTime":"2025-02-25T09:00:00:Z","depth":0,"parameterNumber":3,"parameterNumberName":"V-component_of_WINDS"},"data":[0,0,0,0,0,0,0,0,0,0,0,0,0,0,0,0,0,0,0,0,0,0,0,0,0,0,0,0,0,0,0,0,0,0,0,0,0,0,0,0,0,0,0,0,0,0,0,0,0,0,0,0,0,0,0,0,0,0,-0.8436,-0.8437,0,-0.8522,-0.8523,-0.8524,-0.8584,-0.8584,-0.8584,-0.8585,-0.8674,-0.8676,-0.8678,0,0,0,0,0,0,0,0,0,0,0,0,0,-0.8326,-0.8327,-0.8436,-0.8437,-0.8438,-0.8522,-0.8523,-0.8524,-0.8583,-0.8584,-0.8585,-0.8585,-0.8674,-0.8676,-0.8678,0,0,0,0,0,0,0,0,0,0,0,0,0,-0.8389,-0.8328,-0.8436,-0.8478,-0.8482,-0.8522,-0.8523,-0.8525,-0.8583,-0.8584,-0.8585,-0.8585,-0.8673,-0.8676,-0.8679,-0.8684,0,0,-0.8688,-0.8689,0,0,0,0,0,0,0,0,-0.8385,-0.8393,-0.8471,-0.8475,-0.848,-0.8543,-0.8517,-0.8578,-0.8583,-0.8545,-0.8585,-0.8586,-0.863,-0.8637,-0.8651,-0.8688,-0.8692,-0.8688,-0.869,-0.8691,-0.8692,0,0,0,0,0,0,0,-0.8381,-0.8389,-0.847,-0.8472,-0.8478,-0.8493,-0.8503,-0.8529,-0.8583,-0.8548,-0.8553,-0.8562,-0.8633,-0.8648,-0.8654,-0.8693,-0.8688,-0.869,-0.8692,-0.8693,-0.874,-0.8739,0,0,0,0,0,0,-0.8369,-0.8385,-0.8468,-0.8473,-0.8433,-0.8495,-0.8505,-0.8522,-0.8583,-0.8593,-0.8562,-0.8565,-0.8643,-0.865,-0.8657,-0.8668,-0.8691,-0.8694,-0.8695,-0.874,-0.874,-0.8739,0,0,0,0,0,0,-0.8367,-0.8376,-0.8464,-0.843,-0.8443,-0.8496,-0.8514,-0.8523,-0.8539,-0.8593,-0.8603,-0.8567,-0.8644,-0.8653,-0.8677,-0.8672,-0.8695,-0.8698,-0.8741,-0.874,-0.8739,-0.8689,0,0,0,0,0,0,-0.8363,-0.8375,-0.8377,-0.843,-0.8444,-0.8481,-0.8514,-0.8525,-0.8544,-0.8549,-0.8601,-0.861,-0.8645,-0.8672,-0.868,-0.8677,-0.87,-0.8742,-0.874,-0.8739,-0.8692,-0.8687,-0.8683,0,0,0,0,0,-0.8359,-0.8359,-0.8376,-0.8386,-0.8448,-0.8481,-0.8489,-0.8529,-0.8543,-0.8546,-0.8581,-0.8608,-0.8671,-0.8674,-0.8683,-0.8681,-0.8742,-0.8741,-0.874,-0.8694,-0.8688,-0.8683,0,0,0,0,0,0,-0.8304,-0.8367,-0.8387,-0.8404,-0.8437,-0.8491,-0.8496,-0.8522,-0.8551,-0.8555,-0.8604,-0.8615,-0.8634,-0.866,-0.8662,-0.869,-0.871,-0.8711,-0.8672,-0.8667,-0.8663,-0.8656,-0.8702,0,0,0,0,0,-0.8294,-0.8315,-0.8369,-0.8379,-0.8394,-0.8442,-0.8458,-0.8486,-0.8522,-0.8536,-0.8573,-0.8607,-0.8635,-0.8653,-0.8681,-0.8696,-0.8709,-0.8699,-0.8694,-0.869,-0.869,-0.8702,-0.8698,-0.8735,-0.8735,-0.8735,0,0,-0.8273,-0.831,-0.832,-0.8369,-0.8398,-0.8419,-0.8453,-0.8475,-0.8492,-0.854,-0.8565,-0.8593,-0.8635,-0.8654,-0.8665,-0.8676,-0.8683,-0.8689,-0.8685,-0.8688,-0.87,-0.8696,-0.8693,-0.8734,-0.8734,-0.8734,0,0,-0.8247,-0.8276,-0.8288,-0.8316,-0.8359,-0.8391,-0.8394,-0.8445,-0.8465,-0.8491,-0.8528,-0.8549,-0.8596,-0.8624,-0.8645,-0.863,-0.8658,-0.8638,-0.8616,-0.8626,-0.8623,-0.8621,-0.8617,-0.8614,-0.8638,-0.8638,-0.8638,0,-0.8215,-0.8249,-0.8291,-0.8311,-0.8331,-0.8376,-0.8389,-0.8415,-0.8465,-0.8479,-0.8491,-0.8551,-0.8582,-0.861,-0.8606,-0.8621,-0.8627,-0.8633,-0.862,-0.8618,-0.8616,-0.8613,-0.8611,-0.8636,-0.8636,-0.8636,-0.8636,0,-0.8209,-0.8232,-0.8237,-0.8284,-0.8306,-0.8322,-0.8367,-0.8384,-0.841,-0.8441,-0.8467,-0.8506,-0.8544,-0.8553,-0.8578,-0.8584,-0.8591,-0.861,-0.8632,-0.861,-0.8607,-0.8606,-0.8632,-0.8633,-0.8634,-0.8634,0,0,-0.815,-0.8221,-0.8222,-0.8245,-0.8296,-0.8315,-0.8334,-0.837,-0.8384,-0.8418,-0.8435,-0.8474,-0.8493,-0.8517,-0.8547,-0.8555,-0.8543,-0.8575,-0.8577,-0.8568,-0.8553,-0.8538,-0.8536,-0.8561,-0.8561,-0.8561,-0.855,0,-0.8132,-0.8168,-0.8206,-0.8229,-0.8251,-0.8294,-0.8311,-0.8345,-0.8374,-0.8398,-0.8431,-0.8458,-0.8481,-0.8496,-0.8506,-0.8542,-0.8541,-0.8543,-0.8579,-0.858,-0.8568,-0.8535,-0.8519,-0.8507,-0.8549,-0.8549,-0.8549,0,-0.8116,-0.8147,-0.8171,-0.8222,-0.8232,-0.8246,-0.8284,-0.8306,-0.8346,-0.8367,-0.8393,-0.8425,-0.8448,-0.8467,-0.85,-0.8501,-0.8518,-0.8538,-0.8538,-0.8544,-0.8563,-0.854,-0.8504,-0.8502,-0.8548,-0.8548,-0.8548,0,-0.8071,-0.8119,-0.8141,-0.8159,-0.8217,-0.8227,-0.8252,-0.8292,-0.8312,-0.8345,-0.8359,-0.8394,-0.8413,-0.844,-0.8481,-0.849,-0.851,-0.8532,-0.853,-0.8528,-0.8532,-0.8531,-0.8499,-0.8542,-0.8542,-0.8542,-0.8542,0,-0.8048,-0.8061,-0.8122,-0.8135,-0.8152,-0.8197,-0.8212,-0.8242,-0.8277,-0.8298,-0.8337,-0.8355,-0.8408,-0.8433,-0.8465,-0.8488,-0.8497,-0.8515,-0.8524,-0.8512,-0.851,-0.8524,-0.8527,-0.8541,-0.8541,-0.8541,-0.8541,0,-0.8001,-0.8042,-0.8068,-0.8122,-0.8136,-0.8146,-0.8192,-0.8207,-0.8239,-0.8265,-0.8273,-0.8324,-0.8355,-0.8398,-0.8443,-0.8465,-0.8485,-0.8498,-0.8471,-0.8476,-0.8472,-0.8472,-0.8448,-0.8448,-0.8489,-0.8489,-0.8488,0,-0.7983,-0.7995,-0.805,-0.8066,-0.809,-0.8115,-0.8136,-0.8181,-0.8201,-0.8248,-0.8257,-0.8292,-0.8322,-0.8371,-0.8412,-0.8447,-0.8462,-0.8451,-0.8467,-0.8455,-0.8463,-0.8462,-0.8464,-0.8447,-0.8446,-0.8446,-0.8445,0,-0.7948,-0.7968,-0.7996,-0.8031,-0.8055,-0.8085,-0.8117,-0.8128,-0.818,-0.8201,-0.8234,-0.8257,-0.8303,-0.8337,-0.8378,-0.8405,-0.8434,-0.844,-0.8441,-0.843,-0.8414,-0.8424,-0.8461,-0.844,-0.8441,-0.8441,-0.8441,-0.8441,-0.7917,-0.7929,-0.797,-0.8,-0.8029,-0.8058,-0.8075,-0.8109,-0.8137,-0.8178,-0.8203,-0.8235,-0.8276,-0.8333,-0.8359,-0.8385,-0.8397,-0.8399,-0.8399,-0.8399,-0.8396,-0.8409,-0.8393,-0.8393,-0.8393,-0.8393,-0.8393,0,-0.7885,-0.7913,-0.794,-0.7984,-0.8008,-0.8032,-0.8069,-0.8088,-0.8115,-0.8151,-0.818,-0.8218,-0.8251,-0.8295,-0.8333,-0.8345,-0.836,-0.8354,-0.8354,-0.836,-0.8383,-0.8378,-0.8341,-0.8341,-0.8341,-0.8341,-0.8341,-0.8341,-0.7871,-0.7894,-0.7919,-0.7957,-0.7986,-0.8017,-0.8036,-0.8064,-0.8092,-0.8133,-0.8161,-0.8189,-0.8228,-0.8269,-0.8301,-0.8314,-0.8326,-0.8316,-0.8332,-0.8353,-0.8358,-0.8362,-0.8358,-0.8318,-0.8318,-0.8307,-0.8307,-0.8307]}]]